Regional Weather Roundup
Issued by NWS

Home | Current Version | Previous Version | Text Only | Print | Product List | Glossary Off
Versions: 1 2 3 4 5 6 7 8 9 10 11 12 13 14 15 16 17 18 19 20 21 22 23 24 25 26 27 28 29 30 31 32 33 34 35 36 37 38 39 40 41 42 43 44 45 46 47 48 49 50

000
ASUS43 KFSD 261910
RWRSD

WEATHER ROUNDUP FOR SOUTH DAKOTA
NATIONAL WEATHER SERVICE SIOUX FALLS SD
200 PM CDT WED JUL 26 2017

NOTE: "FAIR" INDICATES FEW OR NO CLOUDS BELOW 12,000 FEET WITH NO
SIGNIFICANT WEATHER AND/OR OBSTRUCTIONS TO VISIBILITY.


SDZ001>005-009-010-012>017-262000-
NORTHWEST AND NORTH CENTRAL SOUTH DAKOTA

CITY           SKY/WX    TMP DP  RH WIND       PRES   REMARKS
BUFFALO          N/A     87  49  26 VRB3      30.10F
FAITH            N/A     84  52  33 S8        30.14F
MOBRIDGE       SUNNY     85  61  44 E7        30.09F
$$

SDZ012>016-024>037-041>051-057-063-072>074-262000-
SOUTHWEST AND SOUTH CENTRAL SOUTH DAKOTA

CITY           SKY/WX    TMP DP  RH WIND       PRES   REMARKS
RAPID CTY ARPT PTSUNNY   80  49  33 VRB5      30.20S
PIERRE         SUNNY     87  52  29 NE13      30.08F
CUSTER         SUNNY     74  43  32 VRB6G26   30.31F
ELLSWORTH AFB  CLOUDY    80  48  31 SE3       30.20S
PHILIP         MOSUNNY   88  54  31 VRB6G21   30.11F
PINE RIDGE     CLOUDY    82  58  43 NE14      30.17R
SPEARFISH      FAIR      77  46  33 SE10      30.23S
WINNER         MOCLDY    88  63  43 E15G24    30.08R
$$

SDZ004>011-016>023-039-040-262000-
NORTHEAST SOUTH DAKOTA

CITY           SKY/WX    TMP DP  RH WIND       PRES   REMARKS
ABERDEEN       SUNNY     82  60  47 NE12      30.09F
WATERTOWN      SUNNY     78  59  51 N10G17    30.08F
BROOKINGS      SUNNY     78  61  55 NE13      30.08R
SISSETON         N/A     82  60  47 NE8       30.06F
$$

SDZ017-020-022-023-036>040-048>070-262000-
SOUTHEAST SOUTH DAKOTA

CITY           SKY/WX    TMP DP  RH WIND       PRES   REMARKS
SIOUX FALLS    MOSUNNY   83  68  60 NE14      30.04R
HURON          SUNNY     83  61  47 NE12      30.06S
CHAMBERLAIN    PTSUNNY   86  67  52 E10G17    30.07S
MITCHELL       MOSUNNY   84  69  60 E12       30.05S
YANKTON        CLOUDY    81  71  71 NE13      30.02S
$$

ABBREVIATIONS USED IN REMARKS
   TC - TEMPERATURE IN CELSIUS
  WCI - WIND CHILL INDEX
   HX - HEAT INDEX
  VSB - VISIBILITY




USA.gov is the U.S. government's official web portal to all federal, state and local government web resources and services.